Regional Weather Roundup
Issued by NWS

Current Version | Previous Version | Text Only | Print | Product List | Glossary On
Versions: 1 2 3 4 5 6 7 8 9 10 11 12 13 14 15 16 17 18 19 20 21 22 23 24 25 26 27 28 29 30 31 32 33 34 35 36 37 38 39 40 41 42 43 44 45 46 47 48 49 50
000
ASHW40 PHFO 240143
RWRHI

WEATHER ROUNDUP FOR HAWAII
NATIONAL WEATHER SERVICE HONOLULU HI
300 PM HST WED APR 23 2014

THIS IS AN AUTOMATED REPORT THAT HAS NOT BEEN QUALITY CONTROLLED.

NOTE..."FAIR" INDICATES FEW OR NO CLOUDS BELOW 12,000 FEET WITH NO
SIGNIFICANT WEATHER AND/OR OBSTRUCTIONS TO VISIBILITY.

* - THESE SITES REPORT LIMITED FIELDS

HIZ001>004-240200-
KAUAI-NIIHAU-

CITY           SKY/WX    TMP DP  RH WIND       PRES   REMARKS
LIHUE APT      PTSUNNY   79  70  73 NE18      30.09F
PORT ALLEN*      N/A     82 N/A N/A E17G24      N/A
POIPU*           N/A     81 N/A N/A NE9G23      N/A
PRINCEVILLE*   NOT AVBL
KOKOLE POINT*    N/A     82  64  54 MISG        N/A
MOLOAA DAIRY*  NOT AVBL
WAIMEA HTS*      N/A     84  57  39 E12G26      N/A
PUU OPAE*        N/A     77  63  61 E7G14       N/A
PUU LUA*       NOT AVBL
MAKAHA RIDGE*    N/A     81  68  65 CALM        N/A
$$

HIZ005>011-240200-
OAHU-

CITY           SKY/WX    TMP DP  RH WIND       PRES   REMARKS
HONOLULU       MOSUNNY   83  61  47 NE16G29   30.04S
KALAELOA       PTSUNNY   84  61  45 E9G17     30.04F
KANEOHE MCB    MOSUNNY   82  65  55 NE10      30.06F
WHEELER FIELD  PTSUNNY   78  63  59 E8        30.06S
BELLOWS*       NOT AVBL
KAHUKU*          N/A    N/A N/A N/A NE9G20      N/A
WHEELER*       NOT AVBL
WAIANAE HARBOR NOT AVBL
DILLINGHAM*      N/A     82  70  65 N6G20       N/A
KAHUKU TRN*      N/A     75  68  78 E14G26      N/A
KAWAILOA*      NOT AVBL
KII*             N/A     79  68  69 NE17G24     N/A
MAKUA RANGE*     N/A     66  54  63 NE16G32     N/A
OAHU FOREST NW   N/A     66  63  88 N18G35      N/A
SCHOFIELD BRK*   N/A    N/A N/A N/A MISG        N/A
SCHOFIELD S*     N/A     77 N/A N/A NE3G14      N/A
WAIANAE VLY*     N/A     84  61  45 S7G23       N/A
KUAOKALA*        N/A     72  66  83 VRB16G29    N/A
HONOULIUULI*   NOT AVBL
MOKUOLOE IS*     N/A    N/A N/A N/A MISG        N/A
PALEHUA*         N/A    N/A N/A N/A CALM        N/A
WAIAWA PHB*    NOT AVBL
$$

HIZ012>013-240200-
MOLOKAI-

CITY           SKY/WX    TMP DP  RH WIND       PRES   REMARKS
MOLOKAI AIRPT  MOSUNNY   79  69  71 NE25G31   30.04F
KALAUPAPA      NOT AVBL
MAKAPULAPAI*     N/A     79  68  69 E21G30      N/A
MOLOKAI 1*       N/A    N/A N/A N/A N3G20       N/A
PUU ALII*        N/A     63  57  81 E3G13       N/A
$$

HIZ016-240200-
KAHOOLAWE-

CITY           SKY/WX    TMP DP  RH WIND       PRES   REMARKS
KAHOOLAWE*       N/A     73 N/A N/A E23G33      N/A
HAKIOAWA*        N/A     75  65  71 MISG      30.14S
HONOKANAIA*      N/A     85  63  47 NE21G35   30.02R
KANELOA*       NOT AVBL
KEALIALALO*      N/A    N/A N/A N/A E20G39    30.33S
LUA MAKIKA*    NOT AVBL
$$

HIZ014>015-240200-
LANAI-

CITY           SKY/WX    TMP DP  RH WIND       PRES   REMARKS
LANAI CITY     FAIR      81  65  58 NE17G25   30.06F
LANAI 1*         N/A     75  70  83 NE21G37     N/A
$$

HIZ017>028-240200-
MAUI-

CITY           SKY/WX    TMP DP  RH WIND       PRES   REMARKS
KAHULUI        LGT RAIN  80  68  66 NE22G37   30.03S
KAPALUA-W MAUI MOSUNNY   77  66  69 NE12G24   30.04F
HANA AIRPORT   NOT AVBL
HANA*            N/A     72 N/A N/A S6G13       N/A
HALEAKALA SUMM   N/A     45  41  87 E22         N/A
MAALAEA BAY*   NOT AVBL
HALEAKALA*     NOT AVBL
KAUPO GAP*       N/A     73  57  56 NW12G25     N/A
KULA 1*          N/A     60  55  83 W5G12       N/A
$$

HIZ023>026-240200-
BIG ISLAND OF HAWAII COAST AND LOWER SLOPES-

CITY           SKY/WX    TMP DP  RH WIND       PRES   REMARKS
KAILUA KONA    SUNNY     83  67  58 S13       29.97F
HILO           MOSUNNY   81  68  64 NE14      30.04F
HONOKAA*       NOT AVBL
KAWAIHAE MWT*    N/A     86 N/A N/A W13         N/A
KAWAIHAE*        N/A     82 N/A N/A SW14        N/A
SOUTH POINT*     N/A     75 N/A N/A E17G25      N/A
UPOLU AIRPORT*   N/A    N/A N/A N/A NE21G29     N/A
KAMUELA*       PTCLDY    72  59  64 NE18G30   30.09S
HAKALAU*         N/A     62  52  70 E7G15       N/A
KALOKO-HONOKO*   N/A     84  68  58 SW9       29.96F
PALI 2*          N/A     73  55  53 N22G33      N/A
KEALAKOMO*       N/A     84  64  51 E21G32      N/A
KAUPULEHU*       N/A     82  55  39 N8G23       N/A
KAPAPALA*        N/A     77  64  63 E12G23      N/A
LOWER KAHUKU*  NOT AVBL
PUHE CS*       NOT AVBL
PUHO CS*         N/A     82  67  60 W3          N/A
PTA KEAMUKU*     N/A     70  59  68 NE23G33     N/A
WAIKOLOA*        N/A     82  59  44 E22G38      N/A
$$

HIZ027>028-240200-
BIG ISLAND OF HAWAII INTERIOR AND SUMMMITS-

CITY           SKY/WX    TMP DP  RH WIND       PRES   REMARKS
BRADSHAW FIELD SUNNY     67  50  53 SE10G24   30.30F
MK VISITOR CEN NOT AVBL
MAUNA KEA*       N/A     43 -11  10 E17         N/A
MAUNA LOA*       N/A    N/A N/A N/A MISG        N/A
MAUNA LOA 1*     N/A    N/A N/A N/A MISG        N/A
PTA KIPUKA*      N/A     68  55  64 NW9G17      N/A
PTA RANGE 17*    N/A     70  55  60 W8G17       N/A
PTA WEST*        N/A     73  57  56 NW12G20     N/A
NENE CABIN*    NOT AVBL
AHUMOA*          N/A     63  56  79 N7G17       N/A
PTA PORTABLE*  NOT AVBL
PUU MALI*      NOT AVBL
$$

HIC003-240200-
NORTHWEST ISLANDS-

CITY           SKY/WX    TMP DP  RH WIND       PRES   REMARKS
MIDWAY ISLAND  PTSUNNY   79  70  73 SE13      30.19S
MIDWAY NOS*    NOT AVBL
FRENCH FRIGATE NOT AVBL
$$

PHZ110>124-180-240200-
BUOY REPORTS

STATION/POSITION TIME  TEMP    WIND        PRES    WAVE   SWELL
                       AIR SEA DIR/SP/G            HT/PER HT/DIR
                 (UTC) (F)     (DEG/KT/KT) (MB)    (FT/S) (FT/D)
BUOY 51001       NOT AVBL
BUOY 51101       0100   71 73   60/ 17/ 21 1020.5F   9/15   7/350
BUOY 51100       0100   74 74   80/ 14/ 19 1019.8
BUOY 51003       0100   77 78   60/ 16/ 19 1016.1F   8/ 9   5
BUOY 51004       0100   78 79   70/ 17/ 19 1012.0F   9/ 9   7
BARBERS PT BUOY  NOT AVBL
WAIMEA BAY BUOY  0100      76                N/A     7/17   3/310
KAILUA BAY BUOY  0100      75                N/A     7/ 8   2/ 50
LANAI BUOY       0100      77                N/A     3/15   2/190
BARBERS PT 2     0100      76                N/A     4/17   3/320
PAUWELA MAUI     NOT AVBL
HILO             0100      78                N/A     7/ 8   2/100
KANEOHE BAY BUOY 0100      75                N/A     6/ 8   2/ 60
HANALEI KAUAI    0100      76                N/A     8/17   5/310
KAHULUI HARBOR   0100   74 77   40/ 12/ 22 1016.9R
HONOLULU HARBOR  0100   81      80/  5/ 15 1017.1R
KILO NALU        NOT AVBL
HILO HARBOR      0100   81 77   40/  8/ 16 1016.5F
MOKUOLOE         0100   77 76   60/ 13/ 16 1018.1S
NAWILIWILI       0100      78                N/A
WHOTS BUOY       NOT AVBL
BUOY 51028       NOT AVBL
$$

......................KEY........................................
  SKY/WX - SKY CONDITIONS/PRESENT WEATHER
  TMP    - TEMPERATURE IN FAHRENHEIT
  DWPT   - DEWPOINT IN FAHRENHEIT
  RH     - RELATIVE HUMIDITY IN PERCENT
  WIND   - DIRECTION AND SPEED /MPH FOR ISLANDS...KTS FOR BUOYS/
  PRES   - MEAN SEA LEVEL PRESSURE IN INCHES OF HG
  VSB    - VISIBILITY IN MILES
  HX     - HEAT INDEX
  WCI    - WIND CHILL INDEX
  VRB    - VARIABLE WIND DIRECTION
  N/A    - NOT AVAILABLE



USA.gov is the U.S. government's official web portal to all federal, state and local government web resources and services.